Location: Unspecified
(17.6330°N, 0.0000°E)
Time: 01:29:14
(UTC+00:00)

NOAA 19 - Visible Passes

Search period start: 20 August 2019 00:00
Search period end: 30 August 2019 00:00
Orbit: 841 x 861 km, 99.2° (Epoch: 18 August)

Date Brightness Start Highest point End Pass type
(mag) Time Alt. Az. Time Alt. Az. Time Alt. Az.
20 Aug 6.2 04:48:44 10° NNE 04:53:59 48° ESE 04:59:13 10° S visible
21 Aug 6.8 04:37:21 10° NE 04:42:19 36° E 04:47:16 10° SSE visible
22 Aug 7.3 04:26:07 10° NE 04:30:39 26° E 04:35:07 10° SSE visible
23 Aug 7.7 04:15:06 10° NE 04:18:56 20° E 04:22:46 10° SE visible
24 Aug 8.0 04:04:26 10° ENE 04:07:15 14° E 04:10:02 10° SE visible
26 Aug 5.2 05:19:08 10° N 05:24:35 79° WNW 05:30:02 10° SSW visible
27 Aug 5.4 05:07:29 10° NNE 05:12:57 78° ESE 05:18:23 10° S visible
28 Aug 5.9 04:55:56 10° NNE 05:01:17 57° ESE 05:06:37 10° S visible
29 Aug 6.5 04:44:29 10° NNE 04:49:37 42° ESE 04:54:43 10° S visible
